Content
SEND FEEDBACK

Daily
Averages
Monthly
Summary
United States of America

SOUTHPORT, NORTH CAROLINA


Home > North America > United States > North Carolina
Elevation: 38 feet     Latitude: 34 00N     Longitude: 078 01W

WEATHER
 
SELECT A DAY
Number of Records: 136,833;   Date Range: 8/21/01 - 9/3/14
 
SHARE

PRINT THIS DATA

[ ← Previous Day ]
WEATHER ALMANAC - JANUARY 14, 2013
[ Next Day → ]
[ °C ]   °F
Weather ElementAverageHighLow
Temperature62.1 °F68.9 °F (1:35 pm)57.6 °F (7:35 am)
Dewpoint59.3 °F62.4 °F (1:35 pm)56.8 °F (2:55 am)
Humidity90.6 %99 % (7:35 am)80 % (11:55 am)
Barometer30.17 in30.21 in (8:55 am)30.12 in (5:15 am)
Wind Speed4.8 mph9.2 mph (12:35 pm)
Wind Gust16.1 mph (1:15 pm)
Weather ElementAverage
Visibility9.7 mi
Wind DirectionS (178.3 °)

Weather ElementTotal
Precipitation---
Heating Degree Days1.8 (Base 65)
Growing Degree Days13.3 (Base 50)
Averaged from 65 records on January 14, 2013
WEATHER CONDITIONS BREAKOUT
WIND DIRECTION BREAKOUT
WEATHER BY HOUR - JANUARY 14, 2013
[ °C ]   °F
Local TimeTemperatureDewpointHumidityBarometerVisibilityWind DirectionWind SpeedGust SpeedPrecipitationEventsConditions
12:55 AM60.8 °F58.5 °F92 %30.17 in10.0 miSSW (200°)4.6 mphClear
1:15 AM59.9 °F58.1 °F94 %30.17 in10.0 miSSW (210°)4.6 mphClear
1:35 AM59.5 °F58.1 °F95 %30.18 in10.0 miSW (220°)4.6 mphClear
1:55 AM59.2 °F57.7 °F95 %30.18 in10.0 miCalmClear
2:15 AM59.4 °F57.7 °F94 %30.18 in10.0 miSouth (190°)3.5 mphClear
2:35 AM58.8 °F57.4 °F95 %30.18 in10.0 miSW (220°)4.6 mphClear
2:55 AM58.1 °F56.8 °F96 %30.18 in10.0 miCalmClear
3:15 AM57.9 °F57.2 °F97 %30.17 in7.0 miSouth (170°)3.5 mphClear
3:35 AM59.5 °F59.0 °F98 %30.16 in10.0 miSouth (180°)4.6 mphClear
3:55 AM60.1 °F59.4 °F97 %30.16 in10.0 miSW (220°)4.6 mphClear
4:35 AM59.2 °F58.6 °F98 %30.15 in10.0 miSouth (190°)3.5 mphScattered Clouds
5:15 AM59.9 °F58.5 °F95 %30.12 in10.0 miSouth (180°)3.5 mphClear
5:35 AM59.9 °F58.1 °F94 %30.13 in10.0 miSSE (160°)3.5 mphClear
5:55 AM59.4 °F58.1 °F96 %30.14 in10.0 miCalmClear
6:15 AM59.4 °F58.3 °F96 %30.15 in10.0 miSSW (200°)3.5 mphClear
6:55 AM59.4 °F58.5 °F97 %30.17 in10.0 miCalmClear
7:15 AM58.3 °F57.7 °F98 %30.17 in5.0 miCalmClear
7:35 AM57.6 °F57.2 °F99 %30.18 in1.5 miCalmMist
7:55 AM59.7 °F59.4 °F99 %30.19 in5.0 miSW (230°)3.5 mphClear
8:15 AM60.8 °F60.3 °F98 %30.19 in10.0 miCalmClear
8:35 AM60.8 °F60.1 °F97 %30.20 in10.0 miSW (230°)3.5 mphClear
8:55 AM61.3 °F60.4 °F97 %30.21 in10.0 miCalmScattered Clouds
9:15 AM61.7 °F60.8 °F97 %30.21 in10.0 miWSW (240°)3.5 mphClear
9:35 AM63.7 °F61.2 °F91 %30.21 in10.0 miCalmClear
9:55 AM63.7 °F60.8 °F90 %30.21 in10.0 miSouth (190°)3.5 mphClear
10:15 AM63.0 °F60.1 °F90 %30.21 in10.0 miSSW (210°)3.5 mphClear
10:35 AM63.9 °F60.4 °F89 %30.21 in10.0 miSSW (210°)3.5 mphClear
10:55 AM66.2 °F61.0 °F83 %30.21 in10.0 miSW (230°)4.6 mphClear
11:15 AM66.9 °F61.0 °F81 %30.19 in10.0 miSW (230°)4.6 mphClear
11:35 AM66.9 °F60.8 °F81 %30.18 in10.0 miSSW (210°)4.6 mphClear
11:55 AM68.0 °F61.7 °F80 %30.18 in10.0 miSW (230°)6.9 mphClear
12:15 PM67.6 °F61.9 °F82 %30.17 in10.0 miSW (230°)8.1 mphClear
12:35 PM68.4 °F62.1 °F80 %30.16 in10.0 miSW (230°)9.2 mphClear
1:15 PM68.0 °F62.2 °F82 %30.15 in10.0 miSW (220°)6.9 mph16.1 mphClear
1:35 PM68.9 °F62.4 °F80 %30.14 in10.0 miSW (230°)6.9 mphClear
1:55 PM68.0 °F61.9 °F81 %30.14 in10.0 miSW (220°)4.6 mphClear
2:15 PM66.7 °F61.5 °F83 %30.15 in10.0 miSW (220°)6.9 mphClear
2:35 PM67.1 °F61.7 °F83 %30.15 in10.0 miSW (220°)5.8 mphClear
2:55 PM66.6 °F61.7 °F84 %30.15 in10.0 miSW (220°)6.9 mphClear
3:15 PM66.0 °F61.2 °F84 %30.15 in10.0 miSW (220°)6.9 mphClear
3:35 PM65.7 °F61.2 °F85 %30.16 in10.0 miSW (220°)6.9 mphClear
3:55 PM65.7 °F61.0 °F85 %30.16 in10.0 miSSW (210°)5.8 mphClear
4:15 PM64.4 °F60.3 °F86 %30.17 in10.0 miSouth (180°)5.8 mphClear
4:35 PM62.8 °F59.7 °F90 %30.17 in10.0 miSouth (190°)5.8 mphClear
5:15 PM61.3 °F59.0 °F92 %30.17 in10.0 miSSW (200°)4.6 mphClear
5:35 PM61.2 °F58.5 °F91 %30.18 in10.0 miSSW (210°)5.8 mphClear
5:55 PM61.7 °F58.3 °F89 %30.18 in10.0 miSSW (210°)5.8 mphClear
6:15 PM61.2 °F58.3 °F90 %30.19 in10.0 miSSW (210°)5.8 mphClear
6:35 PM60.8 °F58.1 °F91 %30.19 in10.0 miSSW (210°)6.9 mphClear
6:55 PM60.8 °F57.7 °F90 %30.18 in10.0 miSSW (200°)6.9 mphClear
7:15 PM60.8 °F58.1 °F91 %30.18 in10.0 miSSW (200°)6.9 mphClear
7:35 PM60.3 °F57.6 °F91 %30.18 in10.0 miSouth (190°)6.9 mphClear
7:55 PM60.6 °F57.7 °F90 %30.18 in10.0 miSouth (190°)6.9 mphClear
8:15 PM60.3 °F57.9 °F92 %30.18 in10.0 miSouth (190°)6.9 mphClear
8:35 PM60.8 °F58.1 °F91 %30.18 in10.0 miSouth (190°)5.8 mphClear
8:55 PM60.8 °F58.1 °F91 %30.18 in10.0 miSSW (210°)6.9 mphClear
9:15 PM61.5 °F58.5 °F90 %30.18 in10.0 miSSW (210°)8.1 mphClear
9:35 PM61.7 °F58.5 °F89 %30.18 in10.0 miSSW (200°)8.1 mphClear
9:55 PM60.3 °F58.1 °F93 %30.18 in10.0 miSSW (210°)4.6 mphClear
10:15 PM60.6 °F58.3 °F92 %30.17 in10.0 miSW (220°)5.8 mphClear
10:35 PM60.8 °F58.3 °F91 %30.18 in10.0 miSSW (210°)5.8 mphClear
10:55 PM61.9 °F58.3 °F88 %30.17 in10.0 miSSW (200°)6.9 mphClear
11:15 PM60.6 °F58.1 °F91 %30.17 in10.0 miSouth (190°)6.9 mphClear
11:35 PM61.3 °F58.6 °F91 %30.17 in10.0 miSouth (190°)6.9 mphClear
11:55 PM61.2 °F59.0 °F93 %30.17 in10.0 miSouth (190°)6.9 mphClear
Hourly data recorded from KSUT, located miles away from Southport, North Carolina







STORIES FROM OUR PARTNERS